Location: Chrome
(40.5765°N, 74.2163°W)
Time: 21:51:57
(UTC+00:00)

Cosmos 1315 Rocket - Pass Details

Date: 06 December 2019
Orbit: 530 x 568 km, 81.2° (Epoch: 19 January)

Event Time Altitude Azimuth Distance (km) Brightness Sun altitude
Rises 22:25:35 0° 206° (SSW) 2,673 7.1 -10.4°
Reaches altitude 10° 22:27:49 10° 214° (SW) 1,792 6.3 -10.8°
Maximum altitude 22:31:31 38° 284° (WNW) 835 4.3 -11.5°
Drops below altitude 10° 22:35:18 10° 354° (N) 1,827 5.3 -12.2°
Sets 22:37:36 0° 2° (N) 2,733 6.2 -12.6°
